CREW DRAGON 2 (48209 NORAD) Tracking and Keplerian Element Data

This shows tracking and keplerian element data for the satellite.

Feedback or suggestion? Click here.




ElementValue
Catalog48209
NameCREW DRAGON 2
Epoch Orbit28896
Epoch Day170.55100848
Epoch Year2021
RAAN331.0365
Inclination51.6443
Eccentricity0.000338
Argument of Perigee104.9286
Mean Anonmoly332.6235
Mean Motion15.48998238
Decay Rate-8.01E-06
L11 48209U 21030A 21170.55100848 -.00000801 00000-0 -63758-5 0 9996
L22 48209 51.6443 331.0365 0003380 104.9286 332.6235 15.48998238288967

Live tracking and technical data element details for CREW DRAGON 2 (NORAD 48209). CREW DRAGON 2 can be tracked NOW for your location showing map with azimuth and elevation plus other details from your city location.

Track the satellite on the map from your city or location and see movement details for azimuth, elevation, latitude, longitude, range, height, and movement on the map or in text.







IsCatalogInMostPopularTable: catalog: 48209, numindb: 25
Update: records affected: 1



GetName: 48209 CREW DRAGON 2

Hit Count: updated at: Mon, 21 Jun 2021 03:55:26 GMT